| time (UTC) | temp F | wind direction | speed MPH | gust MPH | rain 1hr in | rain 24hr in | rain mn in | humidity % | barometer mb |
| 20260508163040 | 58 | 329 | 3.0 | 13.0 | 0.00 | 0.00 | 0.00 | 38 | 1009.3 |
| 20260508161508 | 58 | 309 | 4.0 | 13.0 | 0.00 | 0.00 | 0.00 | 41 | 1009.3 |
| 20260508160032 | 58 | 244 | 3.0 | 10.0 | 0.00 | 0.00 | 0.00 | 39 | 1009.4 |
| 20260508154552 | 56 | 268 | 4.0 | 12.0 | 0.00 | 0.00 | 0.00 | 39 | 1009.8 |
| 20260508153021 | 59 | 252 | 5.0 | 14.0 | 0.00 | 0.00 | 0.00 | 36 | 1009.8 |
| 20260508151541 | 58 | 278 | 1.0 | 14.0 | 0.00 | 0.00 | 0.00 | 38 | 1009.9 |
| 20260508150056 | 58 | 215 | 4.0 | 14.0 | 0.00 | 0.00 | 0.00 | 38 | 1010.0 |
| 20260508144514 | 58 | 311 | 8.0 | 15.0 | 0.00 | 0.00 | 0.00 | 39 | 1010.1 |
| 20260508143038 | 56 | 282 | 4.0 | 12.0 | 0.00 | 0.00 | 0.00 | 41 | 1010.2 |
| 20260508141556 | 56 | 300 | 5.0 | 14.0 | 0.00 | 0.00 | 0.00 | 37 | 1010.4 |
| 20260508140024 | 57 | 279 | 5.0 | 12.0 | 0.00 | 0.00 | 0.00 | 39 | 1010.3 |
| 20260508134556 | 56 | 277 | 6.0 | 12.0 | 0.00 | 0.00 | 0.00 | 38 | 1010.4 |
| 20260508133014 | 58 | 259 | 2.0 | 10.0 | 0.00 | 0.00 | 0.00 | 37 | 1010.4 |
| 20260508131536 | 57 | 272 | 6.0 | 12.0 | 0.00 | 0.00 | 0.00 | 38 | 1010.5 |
| 20260508130050 | 56 | 267 | 4.0 | 12.0 | 0.00 | 0.00 | 0.00 | 41 | 1010.7 |
| 20260508124506 | 54 | 283 | 4.0 | 11.0 | 0.00 | 0.00 | 0.00 | 42 | 1010.5 |
| 20260508123024 | 54 | 250 | 3.0 | 8.0 | 0.00 | 0.00 | 0.00 | 45 | 1010.6 |
| 20260508121536 | 52 | 286 | 1.0 | 6.0 | 0.00 | 0.00 | 0.00 | 47 | 1010.5 |
| 20260508120100 | 51 | 297 | 2.0 | 7.0 | 0.00 | 0.00 | 0.00 | 49 | 1010.7 |
| 20260508114522 | 49 | 360 | 0.0 | 2.0 | 0.00 | 0.00 | 0.00 | 58 | 1010.7 |
| 20260508113046 | 47 | 360 | 0.0 | 2.0 | 0.00 | 0.00 | 0.00 | 61 | 1010.6 |
| 20260508111603 | 44 | 355 | 0.0 | 1.0 | 0.00 | 0.00 | 0.00 | 76 | 1010.6 |
| 20260508110022 | 40 | 355 | 0.0 | 1.0 | 0.00 | 0.00 | 0.00 | 83 | 1010.5 |
| 20260508104539 | 38 | 355 | 0.0 | 1.0 | 0.00 | 0.00 | 0.00 | 85 | 1010.5 |
| 20260508103058 | 37 | 355 | 0.0 | 1.0 | 0.00 | 0.00 | 0.00 | 86 | 1010.4 |
| 20260508101525 | 36 | 355 | 0.0 | 0.0 | 0.00 | 0.00 | 0.00 | 85 | 1010.2 |
| 20260508100042 | 36 | 355 | 1.0 | 2.0 | 0.00 | 0.00 | 0.00 | 86 | 1009.8 |
| 20260508094508 | 35 | 355 | 0.0 | 1.0 | 0.00 | 0.00 | 0.00 | 86 | 1009.9 |
| 20260508093032 | 35 | 355 | 0.0 | 0.0 | 0.00 | 0.00 | 0.00 | 86 | 1009.8 |
| 20260508091617 | 35 | 355 | 0.0 | 0.0 | 0.00 | 0.00 | 0.00 | 85 | 1009.7 |
| 20260508090018 | 35 | 355 | 0.0 | 2.0 | 0.00 | 0.00 | 0.00 | 85 | 1009.6 |
| 20260508084541 | 35 | 355 | 0.0 | 1.0 | 0.00 | 0.00 | 0.00 | 85 | 1009.6 |
| 20260508083059 | 35 | 355 | 0.0 | 2.0 | 0.00 | 0.00 | 0.00 | 86 | 1009.6 |
| 20260508083011 | 35 | 355 | 0.0 | 2.0 | 0.00 | 0.00 | 0.00 | 86 | 1009.6 |
| 20260508081523 | 35 | 355 | 0.0 | 0.0 | 0.00 | 0.00 | 0.00 | 85 | 1009.3 |
| 20260508080058 | 36 | 355 | 0.0 | 2.0 | 0.00 | 0.02 | 0.00 | 84 | 1009.2 |
| 20260508074513 | 36 | 355 | 0.0 | 1.0 | 0.00 | 0.02 | 0.00 | 83 | 1008.7 |
| 20260508073038 | 37 | 355 | 0.0 | 1.0 | 0.00 | 0.02 | 0.00 | 83 | 1008.6 |
| 20260508071557 | 37 | 355 | 0.0 | 1.0 | 0.00 | 0.02 | 0.00 | 82 | 1008.4 |
| 20260508070025 | 38 | 355 | 0.0 | 1.0 | 0.00 | 0.02 | 0.00 | 81 | 1008.3 |
| 20260508064549 | 38 | 355 | 0.0 | 2.0 | 0.00 | 0.02 | 0.00 | 82 | 1008.4 |
| 20260508063012 | 38 | 333 | 0.0 | 0.0 | 0.00 | 0.02 | 0.00 | 79 | 1008.3 |
| 20260508061535 | 39 | 333 | 0.0 | 1.0 | 0.00 | 0.02 | 0.00 | 77 | 1008.4 |
| 20260508060003 | 40 | 333 | 0.0 | 1.0 | 0.00 | 0.02 | 0.00 | 75 | 1008.4 |
| 20260508054527 | 40 | 333 | 0.0 | 2.0 | 0.00 | 0.02 | 0.00 | 74 | 1008.6 |
| 20260508053058 | 41 | 333 | 0.0 | 1.0 | 0.00 | 0.02 | 0.00 | 72 | 1008.6 |
| 20260508051517 | 42 | 333 | 0.0 | 1.0 | 0.00 | 0.02 | 0.00 | 71 | 1008.8 |
| 20260508050036 | 42 | 333 | 0.0 | 1.0 | 0.00 | 0.04 | 0.00 | 69 | 1009.0 |
| 20260508044600 | 43 | 333 | 0.0 | 1.0 | 0.00 | 0.04 | 0.00 | 66 | 1009.0 |
| 20260508043013 | 44 | 333 | 0.0 | 2.0 | 0.00 | 0.04 | 0.00 | 63 | 1009.1 |
| 20260508041537 | 46 | 333 | 0.0 | 0.0 | 0.00 | 0.04 | 0.00 | 62 | 1009.1 |
| 20260508040055 | 47 | 333 | 0.0 | 2.0 | 0.00 | 0.06 | 0.04 | 58 | 1009.1 |
| 20260508034523 | 47 | 289 | 1.0 | 7.0 | 0.00 | 0.06 | 0.04 | 53 | 1009.0 |
| 20260508033049 | 48 | 300 | 1.0 | 3.0 | 0.00 | 0.06 | 0.04 | 52 | 1009.0 |
| 20260508031505 | 49 | 234 | 1.0 | 9.0 | 0.00 | 0.06 | 0.04 | 51 | 1008.9 |
| 20260508030029 | 49 | 290 | 3.0 | 7.0 | 0.00 | 0.06 | 0.04 | 51 | 1008.8 |
| 20260508024551 | 49 | 337 | 0.0 | 7.0 | 0.00 | 0.06 | 0.04 | 50 | 1008.8 |
| 20260508023016 | 49 | 259 | 0.0 | 5.0 | 0.00 | 0.06 | 0.04 | 51 | 1008.7 |
| 20260508021549 | 50 | 251 | 1.0 | 7.0 | 0.00 | 0.06 | 0.04 | 50 | 1008.8 |
| 20260508020001 | 50 | 219 | 0.0 | 8.0 | 0.00 | 0.06 | 0.04 | 50 | 1008.7 |
| 20260508014529 | 50 | 235 | 1.0 | 6.0 | 0.00 | 0.06 | 0.04 | 50 | 1008.6 |
| 20260508013051 | 50 | 251 | 1.0 | 10.0 | 0.00 | 0.06 | 0.04 | 49 | 1008.4 |
| 20260508011524 | 51 | 247 | 0.0 | 4.0 | 0.00 | 0.06 | 0.04 | 48 | 1008.1 |
| 20260508010056 | 52 | 226 | 0.0 | 5.0 | 0.00 | 0.06 | 0.04 | 46 | 1008.0 |
| 20260508004506 | 52 | 279 | 1.0 | 5.0 | 0.00 | 0.06 | 0.04 | 45 | 1007.7 |
| 20260508003027 | 53 | 301 | 0.0 | 4.0 | 0.00 | 0.06 | 0.04 | 43 | 1007.6 |
| 20260508001558 | 54 | 293 | 2.0 | 9.0 | 0.00 | 0.06 | 0.04 | 41 | 1007.4 |
| 20260508000018 | 55 | 271 | 2.0 | 10.0 | 0.00 | 0.07 | 0.04 | 40 | 1007.3 |
| 20260507234543 | 56 | 292 | 2.0 | 10.0 | 0.00 | 0.07 | 0.04 | 38 | 1007.1 |
| 20260507233015 | 57 | 260 | 4.0 | 13.0 | 0.00 | 0.07 | 0.04 | 36 | 1007.0 |
| 20260507231534 | 58 | 232 | 3.0 | 9.0 | 0.00 | 0.07 | 0.04 | 34 | 1006.9 |
| 20260507230005 | 58 | 279 | 2.0 | 11.0 | 0.00 | 0.16 | 0.04 | 34 | 1006.7 |
| 20260507224527 | 59 | 291 | 5.0 | 14.0 | 0.00 | 0.16 | 0.04 | 32 | 1006.7 |
| 20260507223143 | 59 | 290 | 2.0 | 13.0 | 0.00 | 0.16 | 0.04 | 34 | 1006.4 |
| 20260507221512 | 60 | 281 | 6.0 | 15.0 | 0.00 | 0.16 | 0.04 | 32 | 1006.3 |
| 20260507220042 | 61 | 312 | 6.0 | 11.0 | 0.00 | 0.19 | 0.04 | 33 | 1006.2 |
| 20260507214504 | 60 | 319 | 6.0 | 14.0 | 0.00 | 0.19 | 0.04 | 33 | 1006.2 |
| 20260507213035 | 61 | 215 | 5.0 | 17.0 | 0.00 | 0.19 | 0.04 | 32 | 1006.1 |
| 20260507211555 | 63 | 269 | 7.0 | 16.0 | 0.00 | 0.19 | 0.04 | 31 | 1006.1 |
| 20260507210027 | 63 | 298 | 7.0 | 23.0 | 0.00 | 0.21 | 0.04 | 31 | 1006.1 |
| 20260507204543 | 63 | 294 | 3.0 | 16.0 | 0.00 | 0.21 | 0.04 | 30 | 1006.1 |
| 20260507203027 | 63 | 297 | 5.0 | 17.0 | 0.00 | 0.21 | 0.04 | 34 | 1005.9 |
| 20260507201541 | 64 | 348 | 7.0 | 17.0 | 0.00 | 0.21 | 0.04 | 31 | 1005.8 |
| 20260507200110 | 62 | 286 | 2.0 | 18.0 | 0.00 | 0.23 | 0.04 | 33 | 1006.0 |
| 20260507194524 | 64 | 5 | 8.0 | 19.0 | 0.00 | 0.23 | 0.04 | 31 | 1006.0 |
| 20260507193048 | 64 | 257 | 4.0 | 17.0 | 0.00 | 0.23 | 0.04 | 33 | 1006.0 |
| 20260507191510 | 63 | 294 | 6.0 | 13.0 | 0.00 | 0.23 | 0.04 | 31 | 1006.3 |
| 20260507190036 | 64 | 211 | 4.0 | 12.0 | 0.00 | 0.25 | 0.04 | 35 | 1006.4 |
| 20260507184554 | 63 | 283 | 4.0 | 15.0 | 0.00 | 0.25 | 0.04 | 32 | 1006.6 |
| 20260507183031 | 63 | 281 | 6.0 | 13.0 | 0.00 | 0.25 | 0.04 | 35 | 1006.9 |
| 20260507181546 | 63 | 333 | 7.0 | 21.0 | 0.00 | 0.25 | 0.04 | 33 | 1006.9 |
| 20260507180015 | 63 | 225 | 7.0 | 19.0 | 0.00 | 0.25 | 0.04 | 30 | 1007.0 |
| 20260507174551 | 63 | 309 | 5.0 | 17.0 | 0.00 | 0.25 | 0.04 | 31 | 1007.0 |
| 20260507173100 | 63 | 315 | 11.0 | 16.0 | 0.00 | 0.25 | 0.04 | 32 | 1006.8 |
| 20260507173008 | 63 | 321 | 11.0 | 16.0 | 0.00 | 0.25 | 0.04 | 34 | 1006.8 |
| 20260507171523 | 62 | 284 | 5.0 | 18.0 | 0.00 | 0.25 | 0.04 | 38 | 1006.9 |
| 20260507170050 | 62 | 306 | 9.0 | 20.0 | 0.00 | 0.25 | 0.04 | 35 | 1007.1 |
| 20260507164512 | 62 | 242 | 2.0 | 15.0 | 0.00 | 0.25 | 0.04 | 37 | 1007.2 |